Year,Month,Day,Hour,Minute,Value (Times are PST for temperature in C)
2013,05,24,00,00,10.30
2013,05,24,00,01,10.30
2013,05,24,00,02,10.30
2013,05,24,00,03,10.30
2013,05,24,00,04,10.20
2013,05,24,00,05,10.20
2013,05,24,00,06,10.20
2013,05,24,00,07,10.10
2013,05,24,00,08,10.10
2013,05,24,00,09,10.10
2013,05,24,00,10,10.00
2013,05,24,00,11,10.00
2013,05,24,00,12,10.00
2013,05,24,00,13,9.90
2013,05,24,00,14,9.90
2013,05,24,00,15,9.90
2013,05,24,00,16,9.80
2013,05,24,00,17,9.80
2013,05,24,00,18,9.80
2013,05,24,00,19,9.80
2013,05,24,00,20,9.70
2013,05,24,00,21,9.70
2013,05,24,00,22,9.60
2013,05,24,00,23,9.60
2013,05,24,00,24,9.50
2013,05,24,00,25,9.50
2013,05,24,00,26,9.40
2013,05,24,00,27,9.40
2013,05,24,00,28,9.40
2013,05,24,00,29,9.30
2013,05,24,00,30,9.30
2013,05,24,00,31,9.30
2013,05,24,00,32,9.20
2013,05,24,00,33,9.20
2013,05,24,00,34,9.20
2013,05,24,00,35,9.20
2013,05,24,00,36,9.10
2013,05,24,00,37,9.10
2013,05,24,00,38,9.10
2013,05,24,00,39,9.10
2013,05,24,00,40,9.00
2013,05,24,00,41,9.00
2013,05,24,00,42,9.00
2013,05,24,00,43,8.90
2013,05,24,00,44,8.90
2013,05,24,00,45,8.90
2013,05,24,00,46,8.80
2013,05,24,00,47,8.80
2013,05,24,00,48,8.80
2013,05,24,00,49,8.70
2013,05,24,00,50,8.70
2013,05,24,00,51,8.70
2013,05,24,00,52,8.70
2013,05,24,00,53,8.60
2013,05,24,00,54,8.60
2013,05,24,00,55,8.60
2013,05,24,00,56,8.60
2013,05,24,00,57,8.60
2013,05,24,00,58,8.50
2013,05,24,00,59,8.50
2013,05,24,01,00,8.50
2013,05,24,01,01,8.50
2013,05,24,01,02,8.40
2013,05,24,01,03,8.40
2013,05,24,01,04,8.40
2013,05,24,01,05,8.40
2013,05,24,01,06,8.30
2013,05,24,01,07,8.30
2013,05,24,01,08,8.30
2013,05,24,01,09,8.30
2013,05,24,01,10,8.20
2013,05,24,01,11,8.20
2013,05,24,01,12,8.10
2013,05,24,01,13,8.10
2013,05,24,01,14,8.10
2013,05,24,01,15,8.00
2013,05,24,01,16,8.00
2013,05,24,01,17,7.90
2013,05,24,01,18,7.90
2013,05,24,01,19,7.90
2013,05,24,01,20,7.90
2013,05,24,01,21,7.80
2013,05,24,01,22,7.80
2013,05,24,01,23,7.80
2013,05,24,01,24,7.80
2013,05,24,01,25,7.70
2013,05,24,01,26,7.70
2013,05,24,01,27,7.70
2013,05,24,01,28,7.70
2013,05,24,01,29,7.70
2013,05,24,01,30,7.70
2013,05,24,01,31,7.70
2013,05,24,01,32,7.70
2013,05,24,01,33,7.70
2013,05,24,01,34,7.70
2013,05,24,01,35,7.70
2013,05,24,01,36,7.70
2013,05,24,01,37,7.70
2013,05,24,01,38,7.70
2013,05,24,01,39,7.70
2013,05,24,01,40,7.70
2013,05,24,01,41,7.70
2013,05,24,01,42,7.70
2013,05,24,01,43,7.60
2013,05,24,01,44,7.60
2013,05,24,01,45,7.60
2013,05,24,01,46,7.60
2013,05,24,01,47,7.60
2013,05,24,01,48,7.60
2013,05,24,01,49,7.60
2013,05,24,01,50,7.60
2013,05,24,01,51,7.60
2013,05,24,01,52,7.60
2013,05,24,01,53,7.60
2013,05,24,01,54,7.60
2013,05,24,01,55,7.60
2013,05,24,01,56,7.60
2013,05,24,01,57,7.60
2013,05,24,01,58,7.50
2013,05,24,01,59,7.50
2013,05,24,02,00,7.50
2013,05,24,02,01,7.50
2013,05,24,02,02,7.50
2013,05,24,02,03,7.50
2013,05,24,02,04,7.50
2013,05,24,02,05,7.50
2013,05,24,02,06,7.50
2013,05,24,02,07,7.50
2013,05,24,02,08,7.40
2013,05,24,02,09,7.40
2013,05,24,02,10,7.40
2013,05,24,02,11,7.40
2013,05,24,02,12,7.40
2013,05,24,02,13,7.40
2013,05,24,02,14,7.40
2013,05,24,02,15,7.40
2013,05,24,02,16,7.40
2013,05,24,02,17,7.40
2013,05,24,02,18,7.40
2013,05,24,02,19,7.40
2013,05,24,02,20,7.40
2013,05,24,02,21,7.40
2013,05,24,02,22,7.40
2013,05,24,02,23,7.40
2013,05,24,02,24,7.40
2013,05,24,02,25,7.30
2013,05,24,02,26,7.30
2013,05,24,02,27,7.30
2013,05,24,02,28,7.30
2013,05,24,02,29,7.30
2013,05,24,02,30,7.30
2013,05,24,02,31,7.30
2013,05,24,02,32,7.30
2013,05,24,02,33,7.30
2013,05,24,02,34,7.30
2013,05,24,02,35,7.20
2013,05,24,02,36,7.20
2013,05,24,02,37,7.20
2013,05,24,02,38,7.10
2013,05,24,02,39,7.10
2013,05,24,02,40,7.10
2013,05,24,02,41,7.10
2013,05,24,02,42,7.10
2013,05,24,02,43,7.00
2013,05,24,02,44,7.00
2013,05,24,02,45,7.00
2013,05,24,02,46,7.00
2013,05,24,02,47,7.00
2013,05,24,02,48,7.00
2013,05,24,02,49,7.00
2013,05,24,02,50,7.00
2013,05,24,02,51,7.00
2013,05,24,02,52,7.00
2013,05,24,02,53,7.00
2013,05,24,02,54,7.00
2013,05,24,02,55,7.00
2013,05,24,02,56,7.00
2013,05,24,02,57,7.00
2013,05,24,02,58,7.00
2013,05,24,02,59,7.00
2013,05,24,03,00,7.00
2013,05,24,03,01,7.00
2013,05,24,03,02,7.00
2013,05,24,03,03,6.90
2013,05,24,03,04,6.90
2013,05,24,03,05,6.90
2013,05,24,03,06,6.90
2013,05,24,03,07,6.90
2013,05,24,03,08,6.90
2013,05,24,03,09,6.90
2013,05,24,03,10,6.90
2013,05,24,03,11,6.90
2013,05,24,03,12,6.90
2013,05,24,03,13,6.80
2013,05,24,03,14,6.80
2013,05,24,03,15,6.80
2013,05,24,03,16,6.80
2013,05,24,03,17,6.70
2013,05,24,03,18,6.70
2013,05,24,03,19,6.70
2013,05,24,03,20,6.70
2013,05,24,03,21,6.70
2013,05,24,03,22,6.60
2013,05,24,03,23,6.60
2013,05,24,03,24,6.60
2013,05,24,03,25,6.60
2013,05,24,03,26,6.60
2013,05,24,03,27,6.60
2013,05,24,03,28,6.60
2013,05,24,03,29,6.60
2013,05,24,03,30,6.50
2013,05,24,03,31,6.50
2013,05,24,03,32,6.50
2013,05,24,03,33,6.50
2013,05,24,03,34,6.40
2013,05,24,03,35,6.40
2013,05,24,03,36,6.40
2013,05,24,03,37,6.40
2013,05,24,03,38,6.50
2013,05,24,03,39,6.50
2013,05,24,03,40,6.50
2013,05,24,03,41,6.50
2013,05,24,03,42,6.50
2013,05,24,03,43,6.60
2013,05,24,03,44,6.60
2013,05,24,03,45,6.60
2013,05,24,03,46,6.60
2013,05,24,03,47,6.60
2013,05,24,03,48,6.60
2013,05,24,03,49,6.50
2013,05,24,03,50,6.50
2013,05,24,03,51,6.50
2013,05,24,03,52,6.50
2013,05,24,03,53,6.60
2013,05,24,03,54,6.60
2013,05,24,03,55,6.60
2013,05,24,03,56,6.60
2013,05,24,03,57,6.60
2013,05,24,03,58,6.50
2013,05,24,03,59,6.50
2013,05,24,04,00,6.40
2013,05,24,04,01,6.40
2013,05,24,04,02,6.40
2013,05,24,04,03,6.30
2013,05,24,04,04,6.30
2013,05,24,04,05,6.30
2013,05,24,04,06,6.30
2013,05,24,04,07,6.30
2013,05,24,04,08,6.30
2013,05,24,04,09,6.30
2013,05,24,04,10,6.30
2013,05,24,04,11,6.30
2013,05,24,04,12,6.30
2013,05,24,04,13,6.30
2013,05,24,04,14,6.30
2013,05,24,04,15,6.20
2013,05,24,04,16,6.30
2013,05,24,04,17,6.30
2013,05,24,04,18,6.30
2013,05,24,04,19,6.20
2013,05,24,04,20,6.20
2013,05,24,04,21,6.20
2013,05,24,04,22,6.20
2013,05,24,04,23,6.20
2013,05,24,04,24,6.20
2013,05,24,04,25,6.20
2013,05,24,04,26,6.20
2013,05,24,04,27,6.20
2013,05,24,04,28,6.20
2013,05,24,04,29,6.20
2013,05,24,04,30,6.20
2013,05,24,04,31,6.10
2013,05,24,04,32,6.10
2013,05,24,04,33,6.10
2013,05,24,04,34,6.10
2013,05,24,04,35,6.10
2013,05,24,04,36,6.10
2013,05,24,04,37,6.10
2013,05,24,04,38,6.10
2013,05,24,04,39,6.10
2013,05,24,04,40,6.10
2013,05,24,04,41,6.10
2013,05,24,04,42,6.10
2013,05,24,04,43,6.10
2013,05,24,04,44,6.10
2013,05,24,04,45,6.00
2013,05,24,04,46,6.00
2013,05,24,04,47,6.00
2013,05,24,04,48,6.00
2013,05,24,04,49,6.00
2013,05,24,04,50,6.00
2013,05,24,04,51,6.10
2013,05,24,04,52,6.10
2013,05,24,04,53,6.10
2013,05,24,04,54,6.10
2013,05,24,04,55,6.10
2013,05,24,04,56,6.10
2013,05,24,04,57,6.10
2013,05,24,04,58,6.20
2013,05,24,04,59,6.20
2013,05,24,05,00,6.20
2013,05,24,05,01,6.30
2013,05,24,05,02,6.30
2013,05,24,05,03,6.30
2013,05,24,05,04,6.40
2013,05,24,05,05,6.40
2013,05,24,05,06,6.50
2013,05,24,05,07,6.50
2013,05,24,05,08,6.60
2013,05,24,05,09,6.60
2013,05,24,05,10,6.60
2013,05,24,05,11,6.60
2013,05,24,05,12,6.70
2013,05,24,05,13,6.70
2013,05,24,05,14,6.70
2013,05,24,05,15,6.70
2013,05,24,05,16,6.70
2013,05,24,05,17,6.70
2013,05,24,05,18,6.70
2013,05,24,05,19,6.70
2013,05,24,05,20,6.70
2013,05,24,05,21,6.70
2013,05,24,05,22,6.70
2013,05,24,05,23,6.70
2013,05,24,05,24,6.70
2013,05,24,05,25,6.70
2013,05,24,05,26,6.70
2013,05,24,05,27,6.60
2013,05,24,05,28,6.60
2013,05,24,05,29,6.60
2013,05,24,05,30,6.60
2013,05,24,05,31,6.60
2013,05,24,05,32,6.70
2013,05,24,05,33,6.70
2013,05,24,05,34,6.70
2013,05,24,05,35,6.70
2013,05,24,05,36,6.70
2013,05,24,05,37,6.70
2013,05,24,05,38,6.70
2013,05,24,05,39,6.80
2013,05,24,05,40,6.80
2013,05,24,05,41,6.80
2013,05,24,05,42,6.80
2013,05,24,05,43,6.80
2013,05,24,05,44,6.80
2013,05,24,05,45,6.80
2013,05,24,05,46,6.90
2013,05,24,05,47,6.90
2013,05,24,05,48,6.90
2013,05,24,05,49,7.00
2013,05,24,05,50,7.00
2013,05,24,05,51,7.10
2013,05,24,05,52,7.10
2013,05,24,05,53,7.20
2013,05,24,05,54,7.20
2013,05,24,05,55,7.30
2013,05,24,05,56,7.40
2013,05,24,05,57,7.40
2013,05,24,05,58,7.50
2013,05,24,05,59,7.50
2013,05,24,06,00,7.60
2013,05,24,06,01,7.60
2013,05,24,06,02,7.70
2013,05,24,06,03,7.70
2013,05,24,06,04,7.70
2013,05,24,06,05,7.80
2013,05,24,06,06,7.80
2013,05,24,06,07,7.90
2013,05,24,06,08,8.00
2013,05,24,06,09,8.00
2013,05,24,06,10,8.10
2013,05,24,06,11,8.10
2013,05,24,06,12,8.20
2013,05,24,06,13,8.20
2013,05,24,06,14,8.20
2013,05,24,06,15,8.20
2013,05,24,06,16,8.30
2013,05,24,06,17,8.30
2013,05,24,06,18,8.30
2013,05,24,06,19,8.30
2013,05,24,06,20,8.40
2013,05,24,06,21,8.40
2013,05,24,06,22,8.40
2013,05,24,06,23,8.40
2013,05,24,06,24,8.40
2013,05,24,06,25,8.40
2013,05,24,06,26,8.40
2013,05,24,06,27,8.40
2013,05,24,06,28,8.40
2013,05,24,06,29,8.50
2013,05,24,06,30,8.50
2013,05,24,06,31,8.60
2013,05,24,06,32,8.60
2013,05,24,06,33,8.70
2013,05,24,06,34,8.80
2013,05,24,06,35,8.90
2013,05,24,06,36,9.00
2013,05,24,06,37,9.10
2013,05,24,06,38,9.10
2013,05,24,06,39,9.20
2013,05,24,06,40,9.30
2013,05,24,06,41,9.30
2013,05,24,06,42,9.40
2013,05,24,06,43,9.50
2013,05,24,06,44,9.50
2013,05,24,06,45,9.60
2013,05,24,06,46,9.70
2013,05,24,06,47,9.80
2013,05,24,06,48,9.80
2013,05,24,06,49,9.90
2013,05,24,06,50,9.90
2013,05,24,06,51,9.90
2013,05,24,06,52,10.00
2013,05,24,06,53,10.00
2013,05,24,06,54,10.10
2013,05,24,06,55,10.20
2013,05,24,06,56,10.20
2013,05,24,06,57,10.30
2013,05,24,06,58,10.30
2013,05,24,06,59,10.40
2013,05,24,07,00,10.50
2013,05,24,07,01,10.60
2013,05,24,07,02,10.80
2013,05,24,07,03,10.90
2013,05,24,07,04,11.00
2013,05,24,07,05,11.10
2013,05,24,07,06,11.30
2013,05,24,07,07,11.40
2013,05,24,07,08,11.50
2013,05,24,07,09,11.60
2013,05,24,07,10,11.70
2013,05,24,07,11,11.90
2013,05,24,07,12,12.00
2013,05,24,07,13,12.10
2013,05,24,07,14,12.10
2013,05,24,07,15,12.20
2013,05,24,07,16,12.20
2013,05,24,07,17,12.30
2013,05,24,07,18,12.30
2013,05,24,07,19,12.30
2013,05,24,07,20,12.30
2013,05,24,07,21,12.30
2013,05,24,07,22,12.30
2013,05,24,07,23,12.20
2013,05,24,07,24,12.20
2013,05,24,07,25,12.10
2013,05,24,07,26,12.10
2013,05,24,07,27,12.00
2013,05,24,07,28,11.90
2013,05,24,07,29,11.90
2013,05,24,07,30,11.90
2013,05,24,07,31,11.90
2013,05,24,07,32,11.80
2013,05,24,07,33,11.80
2013,05,24,07,34,11.80
2013,05,24,07,35,11.70
2013,05,24,07,36,11.70
2013,05,24,07,37,11.70
2013,05,24,07,38,11.70
2013,05,24,07,39,11.70
2013,05,24,07,40,11.70
2013,05,24,07,41,11.80
2013,05,24,07,42,11.80
2013,05,24,07,43,11.80
2013,05,24,07,44,11.80
2013,05,24,07,45,11.90
2013,05,24,07,46,11.90
2013,05,24,07,47,11.90
2013,05,24,07,48,11.90
2013,05,24,07,49,11.80
2013,05,24,07,50,11.80
2013,05,24,07,51,11.80
2013,05,24,07,52,11.80
2013,05,24,07,53,11.70
2013,05,24,07,54,11.70
2013,05,24,07,55,11.70
2013,05,24,07,56,11.60
2013,05,24,07,57,11.60
2013,05,24,07,58,11.60
2013,05,24,07,59,11.60
2013,05,24,08,00,11.60
2013,05,24,08,01,11.60
2013,05,24,08,02,11.60
2013,05,24,08,03,11.70
2013,05,24,08,04,11.70
2013,05,24,08,05,11.80
2013,05,24,08,06,11.90
2013,05,24,08,07,12.00
2013,05,24,08,08,12.00
2013,05,24,08,09,12.10
2013,05,24,08,10,12.20
2013,05,24,08,11,12.30
2013,05,24,08,12,12.40
2013,05,24,08,13,12.50
2013,05,24,08,14,12.60
2013,05,24,08,15,12.60
2013,05,24,08,16,12.80
2013,05,24,08,17,12.90
2013,05,24,08,18,13.00
2013,05,24,08,19,13.10
2013,05,24,08,20,13.20
2013,05,24,08,21,13.20
2013,05,24,08,22,13.20
2013,05,24,08,23,13.20
2013,05,24,08,24,13.20
2013,05,24,08,25,13.20
2013,05,24,08,26,13.20
2013,05,24,08,27,13.20
2013,05,24,08,28,13.20
2013,05,24,08,29,13.20
2013,05,24,08,30,13.20
2013,05,24,08,31,13.30
2013,05,24,08,32,13.30
2013,05,24,08,33,13.30
2013,05,24,08,34,13.40
2013,05,24,08,35,13.50
2013,05,24,08,36,13.50
2013,05,24,08,37,13.60
2013,05,24,08,38,13.60
2013,05,24,08,39,13.70
2013,05,24,08,40,13.70
2013,05,24,08,41,13.70
2013,05,24,08,42,13.60
2013,05,24,08,43,13.60
2013,05,24,08,44,13.60
2013,05,24,08,45,13.60
2013,05,24,08,46,13.60
2013,05,24,08,47,13.50
2013,05,24,08,48,13.50
2013,05,24,08,49,13.40
2013,05,24,08,50,13.40
2013,05,24,08,51,13.40
2013,05,24,08,52,13.30
2013,05,24,08,53,13.40
2013,05,24,08,54,13.40
2013,05,24,08,55,13.50
2013,05,24,08,56,13.60
2013,05,24,08,57,13.60
2013,05,24,08,58,13.70
2013,05,24,08,59,13.70
2013,05,24,09,00,13.70
2013,05,24,09,01,13.70
2013,05,24,09,02,13.70
2013,05,24,09,03,13.70
2013,05,24,09,04,13.70
2013,05,24,09,05,13.70
2013,05,24,09,06,13.70
2013,05,24,09,07,13.70
2013,05,24,09,08,13.70
2013,05,24,09,09,13.70
2013,05,24,09,10,13.70
2013,05,24,09,11,13.70
2013,05,24,09,12,13.70
2013,05,24,09,13,13.80
2013,05,24,09,14,13.70
2013,05,24,09,15,13.70
2013,05,24,09,16,13.60
2013,05,24,09,17,13.60
2013,05,24,09,18,13.50
2013,05,24,09,19,13.50
2013,05,24,09,20,13.60
2013,05,24,09,21,13.60
2013,05,24,09,22,13.60
2013,05,24,09,23,13.70
2013,05,24,09,24,13.70
2013,05,24,09,25,13.70
2013,05,24,09,26,13.80
2013,05,24,09,27,13.80
2013,05,24,09,28,13.90
2013,05,24,09,29,14.00
2013,05,24,09,30,14.00
2013,05,24,09,31,14.00
2013,05,24,09,32,14.10
2013,05,24,09,33,14.10
2013,05,24,09,34,14.20
2013,05,24,09,35,14.20
2013,05,24,09,36,14.30
2013,05,24,09,37,14.30
2013,05,24,09,38,14.30
2013,05,24,09,39,14.30
2013,05,24,09,40,14.30
2013,05,24,09,41,14.40
2013,05,24,09,42,14.40
2013,05,24,09,43,14.40
2013,05,24,09,44,14.40
2013,05,24,09,45,14.30
2013,05,24,09,46,14.30
2013,05,24,09,47,14.30
2013,05,24,09,48,14.30
2013,05,24,09,49,14.30
2013,05,24,09,50,14.30
2013,05,24,09,51,14.30
2013,05,24,09,52,14.40
2013,05,24,09,53,14.50
2013,05,24,09,54,14.60
2013,05,24,09,55,14.60
2013,05,24,09,56,14.60
2013,05,24,09,57,14.60
2013,05,24,09,58,14.60
2013,05,24,09,59,14.60
2013,05,24,10,00,14.60
2013,05,24,10,01,14.50
2013,05,24,10,02,14.60
2013,05,24,10,03,14.60
2013,05,24,10,04,14.70
2013,05,24,10,05,14.70
2013,05,24,10,06,14.70
2013,05,24,10,07,14.60
2013,05,24,10,08,14.60
2013,05,24,10,09,14.60
2013,05,24,10,10,14.50
2013,05,24,10,11,14.40
2013,05,24,10,12,14.40
2013,05,24,10,13,14.50
2013,05,24,10,14,14.50
2013,05,24,10,15,14.60
2013,05,24,10,16,14.60
2013,05,24,10,17,14.60
2013,05,24,10,18,14.70
2013,05,24,10,19,14.70
2013,05,24,10,20,14.80
2013,05,24,10,21,14.80
2013,05,24,10,22,14.70
2013,05,24,10,23,14.60
2013,05,24,10,24,14.60
2013,05,24,10,25,14.50
2013,05,24,10,26,14.40
2013,05,24,10,27,14.40
2013,05,24,10,28,14.50
2013,05,24,10,29,14.60
2013,05,24,10,30,14.60
2013,05,24,10,31,14.60
2013,05,24,10,32,14.70
2013,05,24,10,33,14.70
2013,05,24,10,34,14.70
2013,05,24,10,35,14.70
2013,05,24,10,36,14.70
2013,05,24,10,37,14.70
2013,05,24,10,38,14.70
2013,05,24,10,39,14.80
2013,05,24,10,40,14.90
2013,05,24,10,41,15.00
2013,05,24,10,42,15.00
2013,05,24,10,43,15.00
2013,05,24,10,44,15.00
2013,05,24,10,45,15.00
2013,05,24,10,46,15.00
2013,05,24,10,47,15.10
2013,05,24,10,48,15.20
2013,05,24,10,49,15.20
2013,05,24,10,50,15.20
2013,05,24,10,51,15.20
2013,05,24,10,52,15.20
2013,05,24,10,53,15.10
2013,05,24,10,54,14.90
2013,05,24,10,55,14.70
2013,05,24,10,56,14.70
2013,05,24,10,57,14.70
2013,05,24,10,58,14.70
2013,05,24,10,59,14.70
2013,05,24,11,00,14.70
2013,05,24,11,01,14.70
2013,05,24,11,02,14.80
2013,05,24,11,03,14.80
2013,05,24,11,04,14.90
2013,05,24,11,05,14.90
2013,05,24,11,06,14.90
2013,05,24,11,07,15.00
2013,05,24,11,08,15.10
2013,05,24,11,09,15.10
2013,05,24,11,10,15.20
2013,05,24,11,11,15.20
2013,05,24,11,12,15.30
2013,05,24,11,13,15.30
2013,05,24,11,14,15.30
2013,05,24,11,15,15.30
2013,05,24,11,16,15.40
2013,05,24,11,17,15.40
2013,05,24,11,18,15.30
2013,05,24,11,19,15.30
2013,05,24,11,20,15.40
2013,05,24,11,21,15.40
2013,05,24,11,22,15.40
2013,05,24,11,23,15.40
2013,05,24,11,24,15.40
2013,05,24,11,25,15.40
2013,05,24,11,26,15.30
2013,05,24,11,27,15.30
2013,05,24,11,28,15.40
2013,05,24,11,29,15.50
2013,05,24,11,30,15.60
2013,05,24,11,31,15.60
2013,05,24,11,32,15.70
2013,05,24,11,33,15.80
2013,05,24,11,34,15.80
2013,05,24,11,35,15.80
2013,05,24,11,36,15.80
2013,05,24,11,37,15.80
2013,05,24,11,38,15.80
2013,05,24,11,39,15.80
2013,05,24,11,40,15.80
2013,05,24,11,41,15.80
2013,05,24,11,42,15.80
2013,05,24,11,43,15.90
2013,05,24,11,44,15.90
2013,05,24,11,45,15.90
2013,05,24,11,46,15.90
2013,05,24,11,47,15.90
2013,05,24,11,48,15.90
2013,05,24,11,49,15.90
2013,05,24,11,50,15.90
2013,05,24,11,51,15.90
2013,05,24,11,52,15.80
2013,05,24,11,53,15.80
2013,05,24,11,54,15.70
2013,05,24,11,55,15.70
2013,05,24,11,56,15.60
2013,05,24,11,57,15.60
2013,05,24,11,58,15.70
2013,05,24,11,59,15.70
2013,05,24,12,00,15.70
2013,05,24,12,01,15.70
2013,05,24,12,02,15.80
2013,05,24,12,03,15.80
2013,05,24,12,04,15.80
2013,05,24,12,05,15.80
2013,05,24,12,06,15.70
2013,05,24,12,07,15.70
2013,05,24,12,08,15.70
2013,05,24,12,09,15.70
2013,05,24,12,10,15.60
2013,05,24,12,11,15.60
2013,05,24,12,12,15.60
2013,05,24,12,13,15.70
2013,05,24,12,14,15.80
2013,05,24,12,15,15.90
2013,05,24,12,16,16.00
2013,05,24,12,17,16.10
2013,05,24,12,18,16.20
2013,05,24,12,19,16.20
2013,05,24,12,20,16.30
2013,05,24,12,21,16.30
2013,05,24,12,22,16.30
2013,05,24,12,23,16.30
2013,05,24,12,24,16.30
2013,05,24,12,25,16.20
2013,05,24,12,26,16.20
2013,05,24,12,27,16.30
2013,05,24,12,28,16.30
2013,05,24,12,29,16.20
2013,05,24,12,30,16.10
2013,05,24,12,31,16.10
2013,05,24,12,32,16.00
2013,05,24,12,33,15.90
2013,05,24,12,34,15.80
2013,05,24,12,35,15.80
2013,05,24,12,36,15.90
2013,05,24,12,37,16.00
2013,05,24,12,38,16.00
2013,05,24,12,39,16.10
2013,05,24,12,40,16.20
2013,05,24,12,41,16.30
2013,05,24,12,42,16.30
2013,05,24,12,43,16.30
2013,05,24,12,44,16.30
2013,05,24,12,45,16.30
2013,05,24,12,46,16.30
2013,05,24,12,47,16.30
2013,05,24,12,48,16.40
2013,05,24,12,49,16.50
2013,05,24,12,50,16.50
2013,05,24,12,51,16.50
2013,05,24,12,52,16.50
2013,05,24,12,53,16.50
2013,05,24,12,54,16.60
2013,05,24,12,55,16.70
2013,05,24,12,56,16.70
2013,05,24,12,57,16.70
2013,05,24,12,58,16.70
2013,05,24,12,59,16.70
2013,05,24,13,00,16.70
2013,05,24,13,01,16.70
2013,05,24,13,02,16.80
2013,05,24,13,03,16.80
2013,05,24,13,04,16.90
2013,05,24,13,05,16.90
2013,05,24,13,06,17.00
2013,05,24,13,07,17.00
2013,05,24,13,08,17.10
2013,05,24,13,09,17.20
2013,05,24,13,10,17.20
2013,05,24,13,11,17.20
2013,05,24,13,12,17.10
2013,05,24,13,13,17.10
2013,05,24,13,14,17.10
2013,05,24,13,15,17.10
2013,05,24,13,16,17.10
2013,05,24,13,17,17.10
2013,05,24,13,18,17.00
2013,05,24,13,19,17.00
2013,05,24,13,20,16.90
2013,05,24,13,21,16.90
2013,05,24,13,22,16.80
2013,05,24,13,23,16.80
2013,05,24,13,24,16.80
2013,05,24,13,25,16.80
2013,05,24,13,26,16.80
2013,05,24,13,27,16.90
2013,05,24,13,28,17.00
2013,05,24,13,29,17.00
2013,05,24,13,30,17.00
2013,05,24,13,31,16.90
2013,05,24,13,32,16.90
2013,05,24,13,33,16.90
2013,05,24,13,34,16.90
2013,05,24,13,35,17.00
2013,05,24,13,36,16.90
2013,05,24,13,37,16.80
2013,05,24,13,38,16.80
2013,05,24,13,39,16.80
2013,05,24,13,40,16.80
2013,05,24,13,41,16.90
2013,05,24,13,42,17.00
2013,05,24,13,43,17.10
2013,05,24,13,46,16.90
